Weather History for Tucson, AZ

Change the Weather History Date:

Friday, October 14, 2011

  Actual Average Record
Temperature  
Mean Temperature 79 °F 72 °F  
Max Temperature 97 °F 86 °F 98 °F (1991)
Min Temperature 60 °F 58 °F 33 °F (1920)
Degree Days  
Heating Degree Days 0 0  
Month to date heating degree days 10 0  
Since 1 July heating degree days 10 0  
Cooling Degree Days 14 7  
Month to date cooling degree days 117 130  
Year to date cooling degree days 3289 3037  
Growing Degree Days 28 (Base 50)    
Moisture  
Dew Point 32 °F    
Average Humidity 23    
Maximum Humidity 36    
Minimum Humidity 9    
Precipitation  
Precipitation 0.00 in 0.03 in 0.72 in (1988)
Month to date precipitation 0.06 0.48  
Year to date precipitation 9.23 9.68  
Snow  
Snow 0.00 in - - ()
Month to date snowfall 0.0  
Snow Depth 0.00 in    
Sea Level Pressure  
Sea Level Pressure 29.84 in    
Wind  
Wind Speed 5 mph (SSE)    
Max Wind Speed 14 mph    
Max Gust Speed 17 mph    
Visibility 10 miles    
Events      
T = Trace of Precipitation, MM = Missing Value Source: NWS Daily Summary

Daily Weather History Graph

Daily Weather History Graph

Search for Another Location

Airport:

Trip Planner

Search our weather history database for the weather conditions in past years. The results will help you decide how hot, cold, wet, or windy it might be!

Date:

Astronomy

Oct. 14, 2011 Rise Set
Actual Time 6:26 AM MST 5:52 PM MST
Civil Twilight 6:01 AM MST 6:17 PM MST
Nautical Twilight 5:33 AM MST 6:45 PM MST
Astronomical Twilight 5:05 AM MST 7:14 PM MST
Moon 7:21 PM MST (10/14) 8:46 AM MST (10/14)
Length of Visible Light 12h 15m
Length of Day
11h 26m
Waning Gibbous, 94% of the Moon is Illuminated
Oct 14
Waning Gibbous
Oct 19
Last Quarter
Oct 26
New
Nov 2
First Quarter
Nov 10
Full

Hourly Weather History & Observations

Time (MST) Temp. Dew Point Humidity Pressure Visibility Wind Dir Wind Speed Gust Speed Precip Events Conditions
12:53 AM 66.0 °F 33.1 °F 29% 29.83 in 10.0 mi SE 6.9 mph - N/A   Clear
1:53 AM 66.0 °F 33.1 °F 29% 29.83 in 10.0 mi SSE 10.4 mph - N/A   Clear
2:53 AM 64.0 °F 33.1 °F 31% 29.83 in 10.0 mi SE 9.2 mph - N/A   Clear
3:53 AM 63.0 °F 33.1 °F 33% 29.82 in 10.0 mi SSE 4.6 mph - N/A   Clear
4:53 AM 63.0 °F 33.1 °F 33% 29.84 in 10.0 mi ESE 4.6 mph - N/A   Clear
5:53 AM 62.1 °F 34.0 °F 35% 29.86 in 10.0 mi SSE 8.1 mph - N/A   Clear
6:53 AM 61.0 °F 34.0 °F 36% 29.88 in 10.0 mi SSE 10.4 mph - N/A   Clear
7:53 AM 66.0 °F 33.1 °F 29% 29.90 in 10.0 mi SSE 11.5 mph - N/A   Clear
8:53 AM 73.0 °F 34.0 °F 24% 29.90 in 10.0 mi SSE 8.1 mph - N/A   Clear
9:53 AM 80.1 °F 34.0 °F 19% 29.89 in 10.0 mi South 6.9 mph - N/A   Clear
10:53 AM 84.9 °F 34.0 °F 16% 29.88 in 10.0 mi SSE 4.6 mph - N/A   Clear
11:53 AM 89.6 °F 33.8 °F 14% 29.98 in 10.0 mi Calm Calm - N/A   Clear
12:53 PM 91.9 °F 30.9 °F 11% 29.82 in 10.0 mi Calm Calm - N/A   Clear
1:53 PM 93.0 °F 28.0 °F 10% 29.79 in 10.0 mi Calm Calm - N/A   Clear
2:53 PM 95.0 °F 28.0 °F 9% 29.77 in 10.0 mi SSW 3.5 mph - N/A   Clear
3:53 PM 95.0 °F 28.0 °F 9% 29.77 in 10.0 mi Calm Calm - N/A   Clear
4:53 PM 95.0 °F 28.0 °F 9% 29.76 in 10.0 mi Calm Calm - N/A   Clear
5:53 PM 90.0 °F 30.9 °F 12% 29.78 in 10.0 mi North 3.5 mph - N/A   Clear
6:53 PM 86.0 °F 30.9 °F 14% 29.79 in 10.0 mi NNW 4.6 mph - N/A   Clear
7:53 PM 82.9 °F 30.0 °F 15% 29.80 in 10.0 mi North 5.8 mph - N/A   Clear
8:53 PM 75.0 °F 32.0 °F 21% 29.82 in 10.0 mi SSW 5.8 mph - N/A   Clear
9:53 PM 71.6 °F 33.8 °F 25% 29.95 in 10.0 mi South 4.6 mph - N/A   Clear
10:53 PM 70.0 °F 33.1 °F 26% 29.84 in 10.0 mi SSE 6.9 mph - N/A   Clear
11:53 PM 66.9 °F 30.9 °F 26% 29.83 in 10.0 mi SE 8.1 mph - N/A   Clear